User: anonymous   Login
Location: Moonridge Observatory
(39.2268°N, 77.7914°W)
Time: 11:31:45
(UTC-04:00)
Language:

CZ-2C R/B - Orbit

View from above orbital plane
View from above orbital plane
View from above satellite
View from above satellite

Ground track
Ground track

The orbit data is extracted from the following two-line orbital elements,

1 28480U 04046B   15089.99098244  .00000351  00000-0  14824-3 0  9995
2 28480 098.1267 229.5237 0143544 093.8662 015.0976 14.25476623538949
Epoch (UTC): 30 March 2015 23:47:00
Eccentricity: 0.0143544
inclination: 98.1267°
perigee height: 704 km
apogee height: 910 km
right ascension of ascending node: 229.5237°
argument of perigee: 93.8662°
revolutions per day: 14.25476623
mean anomaly at epoch: 15.0976°
orbit number at epoch: 53894

The dashed part of the orbit path shows where the satellite is in the earth's shadow,  

DLR